Weather History for Galliano, LA

Change the Weather History Date:

Friday, June 21, 2013

  Actual Average (KAXO) Record (KAXO)
Temperature  
Mean Temperature 80 °F -  
Max Temperature 93 °F 81 °F 91 °F (2012)
Min Temperature 68 °F 78 °F 78 °F (2002)
Cooling Degree Days 15    
Growing Degree Days 30 (Base 50)    
Moisture  
Dew Point 72 °F    
Average Humidity 79    
Maximum Humidity 100    
Minimum Humidity 52    
Precipitation  
Precipitation 0.04 in - - ()
Sea Level Pressure  
Sea Level Pressure 30.08 in    
Wind  
Wind Speed 2 mph (NNE)    
Max Wind Speed 9 mph    
Max Gust Speed -    
Visibility 10 miles    
Events Thunderstorm    
Averages and records for this station are not official NWS values.
T = Trace of Precipitation, MM = Missing Value Source: NWS Daily Summary

Daily Weather History Graph

Daily Weather History Graph

Search for Another Location

Airport:

Trip Planner

Search our weather history database for the weather conditions in past years. The results will help you decide how hot, cold, wet, or windy it might be!

Date:

Astronomy

Jun. 21, 2013 Rise Set
Actual Time 6:01 AM CDT 8:03 PM CDT
Civil Twilight 5:34 AM CDT 8:31 PM CDT
Nautical Twilight 5:01 AM CDT 9:04 PM CDT
Astronomical Twilight 4:26 AM CDT 9:39 PM CDT
Moon 6:19 PM CDT (6/21) 4:11 AM CDT (6/21)
Length of Visible Light 14h 56m
Length of Day
14h 02m
Waxing Gibbous, 95% of the Moon is Illuminated
Jun 21
Waxing Gibbous
Jun 23
Full
Jun 29
Last Quarter
Jul 8
New
Jul 15
First Quarter

Hourly Weather History & Observations

Time (CDT) Temp. Heat Index Dew Point Humidity Pressure Visibility Wind Dir Wind Speed Gust Speed Precip Events Conditions
12:15 AM 70.9 °F - 70.7 °F 99% 30.08 in 7.0 mi Calm Calm - N/A   Clear
12:35 AM 70.7 °F - 70.7 °F 100% 30.07 in 7.0 mi Calm Calm - N/A   Clear
12:55 AM 70.0 °F - 70.0 °F 100% 30.07 in 7.0 mi Calm Calm - N/A   Clear
1:15 AM 69.8 °F - 69.8 °F 100% 30.07 in 5.0 mi WSW 3.5 mph - N/A   Clear
1:35 AM 69.6 °F - 69.6 °F 100% 30.06 in 5.0 mi Calm Calm - N/A   Clear
1:55 AM 69.8 °F - 69.8 °F 100% 30.06 in 10.0 mi Calm Calm - N/A   Clear
2:15 AM 69.3 °F - 69.3 °F 100% 30.05 in 7.0 mi Calm Calm - N/A   Clear
2:35 AM 68.4 °F - 68.4 °F 100% 30.05 in 10.0 mi West 4.6 mph - N/A   Clear
2:55 AM 68.9 °F - 68.9 °F 100% 30.06 in 10.0 mi Calm Calm - N/A   Clear
3:15 AM 68.5 °F - 68.5 °F 100% 30.05 in 10.0 mi Calm Calm - N/A   Clear
3:35 AM 68.9 °F - 68.9 °F 100% 30.06 in 10.0 mi Calm Calm - N/A   Clear
3:55 AM 68.9 °F - 68.9 °F 100% 30.06 in 10.0 mi Calm Calm - N/A   Clear
4:15 AM 68.5 °F - 68.5 °F 100% 30.06 in 10.0 mi Calm Calm - N/A   Clear
4:35 AM 68.4 °F - 68.4 °F 100% 30.06 in 10.0 mi Calm Calm - N/A   Clear
4:55 AM 68.7 °F - 68.7 °F 100% 30.06 in 10.0 mi Calm Calm - N/A   Clear
5:15 AM 68.4 °F - 68.4 °F 100% 30.06 in 7.0 mi Calm Calm - N/A   Clear
5:35 AM 68.5 °F - 68.5 °F 100% 30.06 in 10.0 mi NW 3.5 mph - N/A   Clear
5:55 AM 68.0 °F - 68.0 °F 100% 30.07 in 10.0 mi NNW 3.5 mph - N/A   Clear
6:15 AM 68.5 °F - 68.5 °F 100% 30.07 in 10.0 mi Calm Calm - N/A   Clear
6:35 AM 68.7 °F - 68.7 °F 100% 30.08 in 10.0 mi NW 3.5 mph - N/A   Clear
6:55 AM 69.6 °F - 69.6 °F 100% 30.08 in 7.0 mi Calm Calm - N/A   Clear
7:15 AM 71.2 °F - 71.2 °F 100% 30.09 in 10.0 mi Calm Calm - N/A   Clear
7:35 AM 73.6 °F - 73.6 °F 100% 30.09 in 10.0 mi North 4.6 mph - N/A   Clear
7:55 AM 78.1 °F - 76.1 °F 94% 30.10 in 10.0 mi NNE 3.5 mph - N/A   Clear
8:15 AM 81.1 °F 87.4 °F 75.6 °F 83% 30.10 in 10.0 mi NNE 4.6 mph - N/A   Clear
8:35 AM 83.3 °F 90.8 °F 75.2 °F 76% 30.10 in 10.0 mi North 4.6 mph - N/A   Clear
8:55 AM 83.3 °F 91.8 °F 76.1 °F 79% 30.10 in 10.0 mi North 5.8 mph - N/A   Clear
9:15 AM 83.3 °F 91.4 °F 75.9 °F 78% 30.10 in 10.0 mi North 8.1 mph - N/A   Clear
9:35 AM 84.2 °F 92.6 °F 75.6 °F 75% 30.11 in 10.0 mi North 8.1 mph - N/A   Scattered Clouds
9:55 AM 84.4 °F 93.1 °F 75.6 °F 75% 30.11 in 10.0 mi North 6.9 mph - N/A   Clear
10:15 AM 85.5 °F 94.2 °F 75.2 °F 71% 30.11 in 10.0 mi North 4.6 mph - N/A   Clear
10:35 AM 86.0 °F 94.6 °F 74.8 °F 69% 30.12 in 10.0 mi North 5.8 mph - N/A   Clear
10:55 AM 87.1 °F 95.9 °F 74.5 °F 66% 30.12 in 10.0 mi North 3.5 mph - N/A   Clear
11:15 AM 87.8 °F 96.6 °F 74.3 °F 64% 30.12 in 10.0 mi North 6.9 mph - N/A   Clear
11:35 AM 88.2 °F 96.4 °F 73.8 °F 62% 30.12 in 10.0 mi NE 3.5 mph - N/A   Clear
11:55 AM 88.7 °F 96.7 °F 73.0 °F 60% 30.12 in 10.0 mi Calm Calm - N/A   Clear
12:15 PM 89.1 °F 96.0 °F 72.1 °F 57% 30.12 in 10.0 mi NNE 9.2 mph - N/A   Clear
12:35 PM 89.6 °F 96.6 °F 71.8 °F 56% 30.12 in 10.0 mi North 3.5 mph - N/A   Clear
12:55 PM 90.5 °F 97.5 °F 72.0 °F 54% 30.12 in 10.0 mi NNE 4.6 mph - N/A   Clear
1:15 PM 90.1 °F 96.8 °F 71.6 °F 54% 30.12 in 10.0 mi North 8.1 mph - N/A   Clear
1:35 PM 91.4 °F 98.4 °F 71.4 °F 52% 30.11 in 10.0 mi NNE 5.8 mph - N/A   Clear
1:55 PM 91.4 °F 99.5 °F 72.5 °F 54% 30.11 in 10.0 mi NNE 6.9 mph - N/A   Clear
2:15 PM 91.8 °F 100.3 °F 73.0 °F 54% 30.10 in 10.0 mi North - - N/A   Clear
2:35 PM 92.3 °F 100.9 °F 72.7 °F 53% 30.09 in 10.0 mi North 4.6 mph - N/A   Clear
2:55 PM 91.8 °F 100.3 °F 73.0 °F 54% 30.09 in 10.0 mi NNE 4.6 mph - N/A   Scattered Clouds
3:15 PM 92.7 °F 101.1 °F 72.7 °F 52% 30.08 in 10.0 mi NNE 5.8 mph - N/A   Scattered Clouds
3:35 PM 91.2 °F 99.7 °F 72.9 °F 55% 30.08 in 10.0 mi NE 5.8 mph - N/A   Scattered Clouds
3:55 PM 91.0 °F 102.2 °F 75.2 °F 60% 30.07 in 10.0 mi ENE 8.1 mph - N/A   Scattered Clouds
4:15 PM 91.2 °F 100.2 °F 73.6 °F 56% 30.06 in 10.0 mi East 5.8 mph - N/A   Clear
4:35 PM 91.4 °F 100.7 °F 73.6 °F 56% 30.06 in 10.0 mi East 3.5 mph - N/A   Clear
4:55 PM 91.4 °F 100.1 °F 73.4 °F 55% 30.06 in 10.0 mi ENE 4.6 mph - N/A   Clear
5:15 PM 91.4 °F 100.7 °F 73.9 °F 56% 30.06 in 10.0 mi ESE 4.6 mph - N/A   Clear
5:35 PM 90.7 °F 99.6 °F 73.6 °F 57% 30.06 in 10.0 mi East 3.5 mph - N/A   Scattered Clouds
5:55 PM 89.8 °F 98.6 °F 73.6 °F 59% 30.05 in 10.0 mi East 4.6 mph - N/A   Clear
6:15 PM 89.8 °F 98.6 °F 73.8 °F 59% 30.05 in 10.0 mi East 4.6 mph - N/A   Clear
6:35 PM 89.1 °F 98.5 °F 74.7 °F 62% 30.06 in 10.0 mi East 3.5 mph - N/A   Scattered Clouds
6:55 PM 88.0 °F 97.0 °F 74.5 °F 64% 30.06 in 10.0 mi Calm Calm - N/A   Clear
7:15 PM 86.9 °F 96.4 °F 75.4 °F 68% 30.06 in 10.0 mi East 4.6 mph - N/A   Mostly Cloudy
7:35 PM 82.9 °F 89.7 °F 74.3 °F 75% 30.05 in 10.0 mi NE 5.8 mph - N/A   Scattered Clouds
7:55 PM 81.9 °F 88.0 °F 74.3 °F 78% 30.05 in 10.0 mi East 5.8 mph - N/A Thunderstorm Clear
8:15 PM 81.9 °F 87.0 °F 72.7 °F 74% 30.06 in 10.0 mi Calm Calm - N/A Thunderstorm Clear
8:35 PM 81.3 °F 86.1 °F 72.9 °F 75% 30.05 in 10.0 mi Calm Calm - N/A Thunderstorm Thunderstorm
8:55 PM 79.7 °F - 73.8 °F 82% 30.06 in 10.0 mi Calm Calm - N/A   Clear
9:15 PM 79.2 °F - 73.8 °F 83% 30.07 in 10.0 mi Calm Calm - N/A   Clear
9:35 PM 78.1 °F - 74.3 °F 88% 30.07 in 10.0 mi Calm Calm - N/A   Clear
9:55 PM 79.2 °F - 74.3 °F 85% 30.07 in 10.0 mi Calm Calm - N/A   Clear
10:15 PM 79.0 °F - 74.3 °F 85% 30.07 in 10.0 mi Calm Calm - N/A   Clear
10:35 PM 78.8 °F - 74.3 °F 86% 30.07 in 10.0 mi North 3.5 mph - N/A   Clear
10:55 PM 78.8 °F - 74.5 °F 87% 30.08 in 10.0 mi NNW 3.5 mph - N/A   Clear
11:15 PM 78.8 °F - 74.5 °F 87% 30.07 in 10.0 mi Calm Calm - N/A   Clear
11:35 PM 77.5 °F - 74.1 °F 89% 30.06 in 10.0 mi Calm Calm - N/A   Clear
11:55 PM 76.8 °F - 73.9 °F 91% 30.06 in 10.0 mi Calm Calm - N/A   Clear